GW4446 Weather Reports


Display with metric or nautical units.
time (UTC)temp
F
wind
direction
speed
MPH
gust
MPH
rain 1hr
in
rain 24hr
in
rain mn
in
humidity
%
barometer
mb
20260504205710 82 173 9.0 9.0 0.00 0.01 0.01 76 1014.2
20260504205207 82 193 4.0 8.0 0.00 0.01 0.01 77 1014.5
20260504204706 82 165 2.0 6.0 0.00 0.01 0.01 78 1014.6
20260504204204 82 205 3.0 8.0 0.00 0.01 0.01 78 1014.7
20260504203702 82 143 4.0 7.0 0.00 0.01 0.01 77 1014.4
20260504203200 82 162 3.0 3.0 0.00 0.01 0.01 78 1014.7
20260504202700 82 176 2.0 6.0 0.00 0.01 0.01 80 1014.8
20260504202157 82 189 2.0 4.0 0.00 0.01 0.01 80 1014.6
20260504201654 82 154 2.0 6.0 0.00 0.01 0.01 80 1015.0
20260504201152 81 191 1.0 4.0 0.00 0.01 0.01 79 1015.0
20260504200649 81 186 1.0 4.0 0.00 0.01 0.01 81 1015.2
20260504200145 81 186 1.0 4.0 0.02 0.01 0.01 81 1015.2
20260504195641 82 144 1.0 1.0 0.07 0.01 0.01 81 1015.1
20260504195137 82 135 1.0 2.0 0.05 0.01 0.01 79 1015.3
20260504194634 83 135 4.0 6.0 0.00 0.00 0.00 74 1015.1
20260504194130 84 114 1.0 7.0 0.00 0.00 0.00 70 1015.2
20260504193627 84 118 4.0 6.0 0.00 0.00 0.00 70 1015.3
20260504193125 84 172 3.0 7.0 0.00 0.00 0.00 70 1015.3
20260504192623 84 159 4.0 7.0 0.00 0.00 0.00 73 1015.5
20260504192121 84 153 6.0 6.0 0.00 0.00 0.00 70 1015.4
20260504191619 85 104 2.0 7.0 0.00 0.00 0.00 69 1015.5
20260504191115 85 177 3.0 6.0 0.00 0.00 0.00 69 1015.5
20260504190611 85 177 4.0 6.0 0.00 0.00 0.00 67 1015.5
20260504190108 85 181 4.0 7.0 0.00 0.00 0.00 65 1015.5
20260504185604 85 163 3.0 7.0 0.00 0.00 0.00 67 1015.6
20260504185101 85 144 4.0 7.0 0.00 0.00 0.00 66 1015.6
20260504184556 86 155 6.0 9.0 0.00 0.00 0.00 64 1015.5
20260504184052 86 124 2.0 6.0 0.00 0.00 0.00 63 1015.5
20260504183549 86 219 2.0 6.0 0.00 0.00 0.00 66 1015.8
20260504183047 86 165 6.0 8.0 0.00 0.00 0.00 65 1015.7
20260504182544 86 173 5.0 6.0 0.00 0.00 0.00 65 1015.8
20260504182041 88 155 5.0 8.0 0.00 0.00 0.00 61 1015.7
20260504181538 88 162 4.0 8.0 0.00 0.00 0.00 64 1015.9
20260504181037 87 171 3.0 9.0 0.00 0.00 0.00 61 1015.9
20260504180535 88 142 2.0 8.0 0.00 0.00 0.00 61 1015.9
20260504180034 89 179 3.0 5.0 0.00 0.00 0.00 60 1016.1
20260504175531 90 184 2.0 8.0 0.00 0.00 0.00 57 1016.1
20260504175028 88 197 3.0 6.0 0.00 0.00 0.00 60 1016.3
20260504174525 89 147 3.0 7.0 0.00 0.00 0.00 60 1016.5
20260504174022 91 145 5.0 8.0 0.00 0.00 0.00 56 1016.4
20260504173519 89 160 3.0 7.0 0.00 0.00 0.00 58 1016.6
20260504173016 89 174 2.0 9.0 0.00 0.00 0.00 60 1016.6
20260504172512 90 176 3.0 8.0 0.00 0.00 0.00 58 1016.5
20260504172008 89 177 6.0 7.0 0.00 0.00 0.00 59 1016.7
20260504171506 91 167 3.0 7.0 0.00 0.00 0.00 58 1016.7
20260504171002 90 193 4.0 6.0 0.00 0.00 0.00 59 1016.8
20260504170458 90 160 4.0 7.0 0.00 0.00 0.00 58 1016.8
20260504160419 88 212 1.0 6.0 0.00 0.00 0.00 62 1016.9
20260504150842 87 165 2.0 5.0 0.00 0.00 0.00 63 1016.9
20260504150339 86 221 2.0 3.0 0.00 0.00 0.00 66 1017.0
20260504141309 87 90 3.0 4.0 0.00 0.00 0.00 60 1016.8
20260504140806 87 82 2.0 3.0 0.00 0.00 0.00 62 1016.7
20260504140301 87 69 4.0 4.0 0.00 0.00 0.00 61 1016.6
20260504130730 86 167 1.0 2.0 0.00 0.00 0.00 63 1016.3
20260504130226 85 217 2.0 2.0 0.00 0.00 0.00 65 1016.2
20260504120150 82 157 1.0 1.0 0.00 0.00 0.00 70 1015.4
20260504110617 76 126 1.0 2.0 0.00 0.00 0.00 81 1014.7
20260504110113 75 344 1.0 1.0 0.00 0.00 0.00 84 1014.7
20260504100539 74 39 1.0 1.0 0.00 0.00 0.00 86 1014.3
20260504081933 76 72 2.0 2.0 0.00 0.00 0.00 81 1014.5
20260504081429 76 322 1.0 2.0 0.00 0.00 0.00 82 1014.7
20260504080925 75 20 1.0 1.0 0.00 0.00 0.00 83 1014.8
20260504080422 75 28 1.0 1.0 0.00 0.00 0.00 84 1014.7
20260504070350 75 5 1.0 1.0 0.00 0.00 0.00 83 1015.7
20260504050737 77 23 1.0 1.0 0.00 0.00 0.00 81 1016.7
20260504050235 77 342 2.0 2.0 0.00 0.00 0.00 80 1016.9
20260504045727 76 323 1.0 1.0 0.00 0.00 0.00 83 1016.8
20260504045227 76 14 0.0 1.0 0.00 0.00 0.00 83 1017.0
20260504044724 76 41 1.0 1.0 0.00 0.00 0.00 83 1016.8
20260504044222 76 37 0.0 1.0 0.00 0.00 0.00 83 1017.1
20260504043719 76 31 1.0 1.0 0.00 0.00 0.00 83 1017.2
20260504043216 77 24 1.0 1.0 0.00 0.00 0.00 81 1017.4
20260504042714 77 21 1.0 1.0 0.00 0.00 0.00 81 1017.4
20260504042210 77 52 0.0 1.0 0.00 0.00 0.00 82 1017.3
20260504041706 77 47 1.0 1.0 0.00 0.00 0.00 81 1017.4
20260504041201 76 34 1.0 1.0 0.00 0.00 0.00 82 1017.7
20260504040659 76 58 0.0 1.0 0.00 0.00 0.00 82 1017.6
20260504040156 76 28 1.0 1.0 0.00 0.00 0.00 84 1017.7
20260504035652 75 50 1.0 2.0 0.00 0.00 0.00 86 1017.7
20260504035149 75 64 1.0 2.0 0.00 0.00 0.00 86 1017.7
20260504034647 76 68 1.0 2.0 0.00 0.00 0.00 85 1018.0
20260504034143 77 63 1.0 1.0 0.00 0.00 0.00 83 1017.7
20260504033641 77 45 0.0 1.0 0.00 0.00 0.00 82 1017.8
20260504033138 77 20 0.0 1.0 0.00 0.00 0.00 81 1017.8
20260504032635 77 296 0.0 1.0 0.00 0.00 0.00 81 1017.9
20260504032132 77 330 0.0 1.0 0.00 0.00 0.00 80 1017.8
20260504031629 78 352 1.0 1.0 0.00 0.00 0.00 81 1018.0
20260504031126 78 358 1.0 1.0 0.00 0.00 0.00 80 1017.9
20260504030622 78 314 1.0 1.0 0.00 0.00 0.00 81 1017.9
20260504030119 78 44 1.0 1.0 0.00 0.00 0.00 81 1017.7
20260504025616 78 47 1.0 1.0 0.00 0.00 0.00 80 1017.9
20260504025113 78 354 1.0 1.0 0.00 0.00 0.00 79 1017.7
20260504024610 79 324 0.0 0.0 0.00 0.00 0.00 78 1017.8
20260504024107 78 300 1.0 1.0 0.00 0.00 0.00 78 1017.8
20260504023603 78 275 1.0 1.0 0.00 0.00 0.00 78 1017.8
20260504023059 79 289 0.0 1.0 0.00 0.00 0.00 77 1017.6
20260504022555 79 250 1.0 1.0 0.00 0.00 0.00 77 1017.7
20260504022052 79 227 1.0 1.0 0.00 0.00 0.00 77 1017.5
20260504021549 79 208 1.0 1.0 0.00 0.00 0.00 77 1017.5
20260504021046 79 289 0.0 1.0 0.00 0.00 0.00 76 1017.4
20260504020543 80 238 0.0 1.0 0.00 0.00 0.00 76 1017.4
20260504020039 80 218 0.0 2.0 0.00 0.00 0.00 76 1017.2
20260504015536 80 180 2.0 2.0 0.00 0.00 0.00 77 1017.3
20260504015026 80 217 1.0 2.0 0.00 0.00 0.00 77 1017.3
20260504014523 80 198 1.0 2.0 0.00 0.00 0.00 77 1017.1
20260504014020 80 176 1.0 3.0 0.00 0.00 0.00 77 1017.1
20260504013518 80 154 1.0 2.0 0.00 0.00 0.00 76 1017.1
20260504013015 80 165 2.0 4.0 0.00 0.00 0.00 76 1016.9
20260504012512 80 164 3.0 3.0 0.00 0.00 0.00 76 1016.8
20260504012010 80 148 1.0 4.0 0.00 0.00 0.00 75 1016.8
20260504011506 81 183 2.0 4.0 0.00 0.00 0.00 74 1016.8
20260504011002 81 200 1.0 5.0 0.00 0.00 0.00 74 1016.5
20260504010458 81 176 2.0 4.0 0.00 0.00 0.00 73 1016.6
20260504005954 81 131 4.0 5.0 0.00 0.00 0.00 73 1016.3
20260504005451 81 192 3.0 6.0 0.00 0.00 0.00 73 1016.3
20260504004949 81 152 2.0 4.0 0.00 0.00 0.00 73 1016.2
20260504004446 81 189 1.0 3.0 0.00 0.00 0.00 73 1016.1
20260504003943 81 174 2.0 5.0 0.00 0.00 0.00 73 1015.9
20260504003439 81 122 2.0 3.0 0.00 0.00 0.00 73 1016.0
20260504002936 82 154 1.0 3.0 0.00 0.00 0.00 74 1015.9
20260504002433 82 172 2.0 5.0 0.00 0.00 0.00 74 1015.8
20260504001930 82 171 4.0 4.0 0.00 0.00 0.00 75 1015.8
20260504001428 82 252 1.0 3.0 0.00 0.00 0.00 75 1015.7
20260504000924 82 181 1.0 3.0 0.00 0.00 0.00 75 1015.6
20260504000423 82 184 1.0 4.0 0.00 0.00 0.00 75 1015.5
20260503235919 82 187 0.0 4.0 0.00 0.00 0.00 75 1015.6
20260503235416 82 215 1.0 2.0 0.00 0.00 0.00 75 1015.5
20260503234914 82 262 2.0 3.0 0.00 0.00 0.00 74 1015.6
20260503234411 82 210 2.0 2.0 0.00 0.00 0.00 74 1015.5
20260503233909 82 259 2.0 2.0 0.00 0.00 0.00 74 1015.5
20260503233405 82 204 2.0 4.0 0.00 0.00 0.00 74 1015.4
20260503232902 82 167 4.0 5.0 0.00 0.00 0.00 74 1015.3
20260503232359 82 231 2.0 3.0 0.00 0.00 0.00 73 1015.3
20260503231857 83 160 2.0 2.0 0.00 0.00 0.00 73 1015.4
20260503231354 83 225 1.0 3.0 0.00 0.00 0.00 72 1015.3
20260503230849 83 166 2.0 5.0 0.00 0.00 0.00 72 1015.3
20260503230346 83 237 2.0 2.0 0.00 0.00 0.00 72 1015.4
20260503225844 83 136 2.0 3.0 0.00 0.00 0.00 72 1015.2
20260503225340 83 178 0.0 2.0 0.00 0.00 0.00 72 1015.2
20260503224836 83 165 1.0 2.0 0.00 0.00 0.00 72 1015.3
20260503224334 83 163 1.0 5.0 0.00 0.00 0.00 72 1015.3
20260503223831 83 179 2.0 4.0 0.00 0.00 0.00 71 1015.2
20260503223329 83 219 1.0 6.0 0.00 0.00 0.00 70 1015.2
20260503222824 83 121 2.0 5.0 0.00 0.00 0.00 70 1015.1
20260503222323 83 218 2.0 4.0 0.00 0.00 0.00 71 1015.1
20260503221821 83 167 5.0 7.0 0.00 0.00 0.00 70 1015.1
20260503221319 83 216 5.0 7.0 0.00 0.00 0.00 69 1015.0
20260503220814 83 190 3.0 4.0 0.00 0.00 0.00 70 1015.0
20260503220311 83 166 3.0 5.0 0.00 0.00 0.00 71 1015.2
20260503215808 83 158 4.0 7.0 0.00 0.00 0.00 71 1014.9
20260503215305 83 158 2.0 7.0 0.00 0.00 0.00 72 1014.9
20260503214803 83 150 6.0 7.0 0.00 0.00 0.00 72 1015.2
20260503214300 83 183 4.0 8.0 0.00 0.00 0.00 71 1015.1
20260503213757 83 179 5.0 8.0 0.00 0.00 0.00 71 1015.1
20260503213255 84 174 5.0 8.0 0.00 0.00 0.00 72 1015.0
20260503212751 84 132 3.0 7.0 0.00 0.00 0.00 73 1014.9
20260503212249 84 184 6.0 8.0 0.00 0.00 0.00 72 1015.0
20260503211747 84 201 2.0 9.0 0.00 0.00 0.00 72 1015.0
20260503211243 84 184 2.0 7.0 0.00 0.00 0.00 72 1015.0
20260503210738 84 155 4.0 9.0 0.00 0.00 0.00 72 1015.0
20260503210236 84 172 6.0 8.0 0.00 0.00 0.00 72 1015.0